Time,TemperatureF,DewpointF,PressureIn,WindDirection,WindDirectionDegrees,WindSpeedMPH,WindSpeedGustMPH,Humidity,HourlyPrecipIn,Conditions,Clouds,dailyrainin,SolarRadiationWatts/m^2,SoftwareType,DateUTC
2013-04-17 00:02:00,61.0,61.0,-100.00,SSW,197,0.0,2.0,99,0.00,,,0.00,0.000000,,2013-04-17 10:02:00,
2013-04-17 00:12:00,61.0,61.0,-100.00,SSW,197,0.0,2.0,99,0.00,,,0.00,0.000000,,2013-04-17 10:12:00,
2013-04-17 00:23:00,61.0,61.0,-100.00,SSW,197,0.0,2.0,99,0.00,,,0.00,0.000000,,2013-04-17 10:23:00,
2013-04-17 00:32:00,61.0,61.0,-100.00,SSW,197,0.0,2.0,99,0.00,,,0.00,0.000000,,2013-04-17 10:32:00,
2013-04-17 01:02:00,60.0,60.0,-100.00,SSE,168,4.0,8.0,99,0.00,,,0.00,0.000000,,2013-04-17 11:02:00,
2013-04-17 01:11:00,60.0,60.0,-100.00,SSE,168,4.0,8.0,99,0.00,,,0.00,0.000000,,2013-04-17 11:11:00,
2013-04-17 01:22:00,60.0,60.0,-100.00,SSE,168,4.0,8.0,99,0.00,,,0.00,0.000000,,2013-04-17 11:22:00,
2013-04-17 01:32:00,60.0,60.0,-100.00,SSE,168,4.0,8.0,99,0.00,,,0.00,0.000000,,2013-04-17 11:32:00,
2013-04-17 02:02:00,58.0,58.0,-100.00,SSE,168,3.0,8.0,99,0.00,,,0.00,0.000000,,2013-04-17 12:02:00,
2013-04-17 02:12:00,58.0,58.0,-100.00,SSE,168,3.0,8.0,99,0.00,,,0.00,0.000000,,2013-04-17 12:12:00,
2013-04-17 02:22:00,58.0,58.0,-100.00,SSE,168,3.0,8.0,99,0.00,,,0.00,0.000000,,2013-04-17 12:22:00,
2013-04-17 02:32:00,58.0,58.0,-100.00,SSE,168,3.0,8.0,99,0.00,,,0.00,0.000000,,2013-04-17 12:32:00,
2013-04-17 03:02:00,59.0,54.0,-100.00,SSE,153,6.0,8.0,85,0.00,,,0.00,0.000000,,2013-04-17 13:02:00,
2013-04-17 03:12:00,59.0,54.0,-100.00,SSE,153,6.0,8.0,85,0.00,,,0.00,0.000000,,2013-04-17 13:12:00,
2013-04-17 03:22:00,59.0,54.0,-100.00,SSE,153,6.0,8.0,85,0.00,,,0.00,0.000000,,2013-04-17 13:22:00,
2013-04-17 03:32:00,59.0,54.0,-100.00,SSE,153,6.0,8.0,85,0.00,,,0.00,0.000000,,2013-04-17 13:32:00,
2013-04-17 04:02:00,58.0,53.0,-100.00,SSE,150,4.0,8.0,83,0.00,,,0.00,0.000000,,2013-04-17 14:02:00,
2013-04-17 04:12:00,58.0,53.0,-100.00,SSE,150,4.0,8.0,83,0.00,,,0.00,0.000000,,2013-04-17 14:12:00,
2013-04-17 04:22:00,58.0,53.0,-100.00,SSE,150,4.0,8.0,83,0.00,,,0.00,0.000000,,2013-04-17 14:22:00,
2013-04-17 04:32:00,58.0,53.0,-100.00,SSE,150,4.0,8.0,83,0.00,,,0.00,0.000000,,2013-04-17 14:32:00,
2013-04-17 05:02:00,56.0,46.0,-100.00,SSE,152,5.0,7.0,69,0.00,,,0.00,0.000000,,2013-04-17 15:02:00,
2013-04-17 05:12:00,56.0,46.0,-100.00,SSE,152,5.0,7.0,69,0.00,,,0.00,0.000000,,2013-04-17 15:12:00,
2013-04-17 05:22:00,56.0,46.0,-100.00,SSE,152,5.0,7.0,69,0.00,,,0.00,0.000000,,2013-04-17 15:22:00,
2013-04-17 05:33:00,56.0,46.0,-100.00,SSE,152,5.0,7.0,69,0.00,,,0.00,0.000000,,2013-04-17 15:33:00,
2013-04-17 06:03:00,55.0,51.0,-100.00,SSE,153,6.0,7.0,85,0.00,,,0.00,0.000000,,2013-04-17 16:03:00,
2013-04-17 06:12:00,55.0,51.0,-100.00,SSE,153,6.0,7.0,85,0.00,,,0.00,0.000000,,2013-04-17 16:12:00,
2013-04-17 06:22:00,55.0,51.0,-100.00,SSE,153,6.0,7.0,85,0.00,,,0.00,0.000000,,2013-04-17 16:22:00,
2013-04-17 06:32:00,55.0,51.0,-100.00,SSE,153,6.0,7.0,85,0.00,,,0.00,0.000000,,2013-04-17 16:32:00,
2013-04-17 07:02:00,58.0,58.0,-100.00,South,184,4.0,7.0,99,0.00,,,0.00,13.000000,,2013-04-17 17:02:00,
2013-04-17 07:12:00,58.0,58.0,-100.00,South,184,4.0,7.0,99,0.00,,,0.00,13.000000,,2013-04-17 17:12:00,
2013-04-17 07:22:00,58.0,58.0,-100.00,South,184,4.0,7.0,99,0.00,,,0.00,13.000000,,2013-04-17 17:22:00,
2013-04-17 07:32:00,58.0,58.0,-100.00,South,184,4.0,7.0,99,0.00,,,0.00,13.000000,,2013-04-17 17:32:00,
2013-04-17 08:02:00,64.0,61.0,-100.00,WSW,241,0.0,7.0,91,0.00,,,0.00,165.000000,,2013-04-17 18:02:00,
2013-04-17 08:12:00,64.0,61.0,-100.00,WSW,241,0.0,7.0,91,0.00,,,0.00,165.000000,,2013-04-17 18:12:00,
2013-04-17 08:22:00,64.0,61.0,-100.00,WSW,241,0.0,7.0,91,0.00,,,0.00,165.000000,,2013-04-17 18:22:00,
2013-04-17 08:32:00,64.0,61.0,-100.00,WSW,241,0.0,7.0,91,0.00,,,0.00,165.000000,,2013-04-17 18:32:00,
2013-04-17 09:02:00,67.0,66.0,-100.00,West,271,2.0,7.0,95,0.00,,,0.00,240.000000,,2013-04-17 19:02:00,
2013-04-17 09:12:00,67.0,66.0,-100.00,West,271,2.0,7.0,95,0.00,,,0.00,240.000000,,2013-04-17 19:12:00,
2013-04-17 09:22:00,67.0,66.0,-100.00,West,271,2.0,7.0,95,0.00,,,0.00,240.000000,,2013-04-17 19:22:00,
2013-04-17 09:32:00,67.0,66.0,-100.00,West,271,2.0,7.0,95,0.00,,,0.00,240.000000,,2013-04-17 19:32:00,
2013-04-17 10:02:00,70.0,60.0,-100.00,West,261,4.0,11.0,71,0.00,,,0.00,511.000000,,2013-04-17 20:02:00,
2013-04-17 10:12:00,70.0,60.0,-100.00,West,261,4.0,11.0,71,0.00,,,0.00,511.000000,,2013-04-17 20:12:00,
2013-04-17 10:22:00,70.0,60.0,-100.00,West,261,4.0,11.0,71,0.00,,,0.00,511.000000,,2013-04-17 20:22:00,
2013-04-17 10:32:00,70.0,60.0,-100.00,West,261,4.0,11.0,71,0.00,,,0.00,511.000000,,2013-04-17 20:32:00,
2013-04-17 11:02:00,74.0,59.0,-100.00,West,260,4.0,10.0,59,0.00,,,0.00,737.000000,,2013-04-17 21:02:00,
2013-04-17 11:12:00,74.0,59.0,-100.00,West,260,4.0,10.0,59,0.00,,,0.00,737.000000,,2013-04-17 21:12:00,
2013-04-17 11:22:00,74.0,59.0,-100.00,West,260,4.0,10.0,59,0.00,,,0.00,737.000000,,2013-04-17 21:22:00,
2013-04-17 11:32:00,74.0,59.0,-100.00,West,260,4.0,10.0,59,0.00,,,0.00,737.000000,,2013-04-17 21:32:00,
2013-04-17 12:02:00,74.0,62.0,-100.00,WNW,294,7.0,15.0,67,0.00,,,0.00,657.000000,,2013-04-17 22:02:00,
2013-04-17 12:12:00,74.0,62.0,-100.00,WNW,294,7.0,15.0,67,0.00,,,0.00,657.000000,,2013-04-17 22:12:00,
2013-04-17 12:22:00,74.0,62.0,-100.00,WNW,294,7.0,15.0,67,0.00,,,0.00,657.000000,,2013-04-17 22:22:00,
2013-04-17 12:33:00,74.0,62.0,-100.00,WNW,294,7.0,15.0,67,0.00,,,0.00,657.000000,,2013-04-17 22:33:00,
2013-04-17 13:02:00,71.0,62.0,-100.00,NW,322,8.0,14.0,72,0.00,,,0.00,319.000000,,2013-04-17 23:02:00,
2013-04-17 13:12:00,71.0,62.0,-100.00,NW,322,8.0,14.0,72,0.00,,,0.00,319.000000,,2013-04-17 23:12:00,
2013-04-17 13:22:00,71.0,62.0,-100.00,NW,322,8.0,14.0,72,0.00,,,0.00,319.000000,,2013-04-17 23:22:00,
2013-04-17 13:32:00,71.0,62.0,-100.00,NW,322,8.0,14.0,72,0.00,,,0.00,319.000000,,2013-04-17 23:32:00,
2013-04-17 14:02:00,74.0,59.0,-100.00,NNW,338,6.0,16.0,60,0.00,,,0.00,489.000000,,2013-04-18 00:02:00,
2013-04-17 14:12:00,74.0,59.0,-100.00,NNW,338,6.0,16.0,60,0.00,,,0.00,489.000000,,2013-04-18 00:12:00,
2013-04-17 14:22:00,74.0,59.0,-100.00,NNW,338,6.0,16.0,60,0.00,,,0.00,489.000000,,2013-04-18 00:22:00,
2013-04-17 14:32:00,74.0,59.0,-100.00,NNW,338,6.0,16.0,60,0.00,,,0.00,489.000000,,2013-04-18 00:32:00,
2013-04-17 15:02:00,74.0,54.0,-100.00,NE,41,11.0,24.0,50,0.00,,,0.00,760.000000,,2013-04-18 01:02:00,
2013-04-17 15:12:00,74.0,54.0,-100.00,NE,41,11.0,24.0,50,0.00,,,0.00,760.000000,,2013-04-18 01:12:00,
2013-04-17 15:22:00,74.0,54.0,-100.00,NE,41,11.0,24.0,50,0.00,,,0.00,760.000000,,2013-04-18 01:22:00,
2013-04-17 15:32:00,74.0,54.0,-100.00,NE,41,11.0,24.0,50,0.00,,,0.00,760.000000,,2013-04-18 01:32:00,
2013-04-17 16:02:00,75.0,53.0,-100.00,NNE,16,11.0,22.0,47,0.00,,,0.00,967.000000,,2013-04-18 02:02:00,
2013-04-17 16:12:00,75.0,53.0,-100.00,NNE,16,11.0,22.0,47,0.00,,,0.00,967.000000,,2013-04-18 02:12:00,
2013-04-17 16:22:00,75.0,53.0,-100.00,NNE,16,11.0,22.0,47,0.00,,,0.00,967.000000,,2013-04-18 02:22:00,
2013-04-17 16:32:00,75.0,53.0,-100.00,NNE,16,11.0,22.0,47,0.00,,,0.00,967.000000,,2013-04-18 02:32:00,
2013-04-17 17:02:00,75.0,54.0,-100.00,North,11,12.0,22.0,48,0.00,,,0.00,725.000000,,2013-04-18 03:02:00,
2013-04-17 17:12:00,75.0,54.0,-100.00,North,11,12.0,22.0,48,0.00,,,0.00,725.000000,,2013-04-18 03:12:00,
2013-04-17 17:22:00,75.0,54.0,-100.00,North,11,12.0,22.0,48,0.00,,,0.00,725.000000,,2013-04-18 03:22:00,
2013-04-17 17:33:00,75.0,54.0,-100.00,North,11,12.0,22.0,48,0.00,,,0.00,725.000000,,2013-04-18 03:33:00,
2013-04-17 18:03:00,71.0,55.0,-100.00,NNE,28,15.0,22.0,58,0.00,,,0.00,387.000000,,2013-04-18 04:03:00,
2013-04-17 18:13:00,71.0,55.0,-100.00,NNE,28,15.0,22.0,58,0.00,,,0.00,387.000000,,2013-04-18 04:13:00,
2013-04-17 18:23:00,71.0,55.0,-100.00,NNE,28,15.0,22.0,58,0.00,,,0.00,387.000000,,2013-04-18 04:23:00,
2013-04-17 18:32:00,71.0,55.0,-100.00,NNE,28,15.0,22.0,58,0.00,,,0.00,387.000000,,2013-04-18 04:32:00,
2013-04-17 19:02:00,66.0,57.0,-100.00,North,11,12.0,25.0,73,0.00,,,0.00,37.000000,,2013-04-18 05:02:00,
2013-04-17 19:12:00,66.0,57.0,-100.00,North,11,12.0,25.0,73,0.00,,,0.00,37.000000,,2013-04-18 05:12:00,
2013-04-17 19:22:00,66.0,57.0,-100.00,North,11,12.0,25.0,73,0.00,,,0.00,37.000000,,2013-04-18 05:22:00,
2013-04-17 19:32:00,66.0,57.0,-100.00,North,11,12.0,25.0,73,0.00,,,0.00,37.000000,,2013-04-18 05:32:00,
2013-04-17 20:02:00,63.0,59.0,-100.00,SSW,194,3.0,20.0,88,0.00,,,0.00,1.000000,,2013-04-18 06:02:00,
2013-04-17 20:12:00,63.0,59.0,-100.00,SSW,194,3.0,20.0,88,0.00,,,0.00,1.000000,,2013-04-18 06:12:00,
2013-04-17 20:22:00,63.0,59.0,-100.00,SSW,194,3.0,20.0,88,0.00,,,0.00,1.000000,,2013-04-18 06:22:00,
2013-04-17 20:32:00,63.0,59.0,-100.00,SSW,194,3.0,20.0,88,0.00,,,0.00,1.000000,,2013-04-18 06:32:00,
2013-04-17 21:02:00,62.0,60.0,-100.00,SSW,197,6.0,10.0,92,0.00,,,0.00,0.000000,,2013-04-18 07:02:00,
2013-04-17 21:12:00,62.0,60.0,-100.00,SSW,197,6.0,10.0,92,0.00,,,0.00,0.000000,,2013-04-18 07:12:00,
2013-04-17 21:22:00,62.0,60.0,-100.00,SSW,197,6.0,10.0,92,0.00,,,0.00,0.000000,,2013-04-18 07:22:00,
2013-04-17 21:32:00,62.0,60.0,-100.00,SSW,197,6.0,10.0,92,0.00,,,0.00,0.000000,,2013-04-18 07:32:00,
2013-04-17 22:02:00,60.0,55.0,-100.00,South,190,6.0,10.0,84,0.00,,,0.00,0.000000,,2013-04-18 08:02:00,
2013-04-17 22:12:00,60.0,55.0,-100.00,South,190,6.0,10.0,84,0.00,,,0.00,0.000000,,2013-04-18 08:12:00,
2013-04-17 22:22:00,60.0,55.0,-100.00,South,190,6.0,10.0,84,0.00,,,0.00,0.000000,,2013-04-18 08:22:00,
2013-04-17 22:32:00,60.0,55.0,-100.00,South,190,6.0,10.0,84,0.00,,,0.00,0.000000,,2013-04-18 08:32:00,
2013-04-17 23:02:00,60.0,54.0,-100.00,SSW,198,8.0,12.0,81,0.00,,,0.00,0.000000,,2013-04-18 09:02:00,
2013-04-17 23:12:00,60.0,54.0,-100.00,SSW,198,8.0,12.0,81,0.00,,,0.00,0.000000,,2013-04-18 09:12:00,
2013-04-17 23:22:00,60.0,54.0,-100.00,SSW,198,8.0,12.0,81,0.00,,,0.00,0.000000,,2013-04-18 09:22:00,
2013-04-17 23:32:00,60.0,54.0,-100.00,SSW,198,8.0,12.0,81,0.00,,,0.00,0.000000,,2013-04-18 09:32:00,